Terminal Aerodrome Forecast
Issued by NWS

Home | Current Version | Previous Version | Text Only | Print | Product List | Glossary On
Versions: 1 2 3 4 5 6 7 8 9 10 11 12 13 14 15 16 17 18 19 20 21 22 23
958
FTUS43 KLSX 012340
TAFSUS
TAF
KSUS 012340Z 0200/0224 29013G19KT P6SM SCT060
     FM020200 30006KT P6SM SCT050
     FM020600 31007KT P6SM BKN025
     FM020900 32007KT 6SM BR BKN009 OVC015
     FM021600 33007KT P6SM VCSH BKN015 OVC040=

USA.gov is the U.S. government's official web portal to all federal, state and local government web resources and services.